Location: Street
(51.1247°N, 2.7429°W)
Time: 22:24:25
(UTC+00:00)

Tiros 1 - Visible Passes

Search period start: 05 December 2020 00:00
Search period end: 15 December 2020 00:00
Orbit: 630 x 664 km, 48.4° (Epoch: 05 December)

Date Brightness Start Highest point End Pass type
(mag) Time Alt. Az. Time Alt. Az. Time Alt. Az.
05 Dec 8.4 17:46:25 10° W 17:50:54 40° SSW 17:55:21 10° SE visible
05 Dec 9.7 19:29:45 10° WSW 19:32:13 14° SW 19:33:24 13° SSW visible
06 Dec 9.1 18:12:37 10° W 18:16:35 26° SSW 18:20:31 10° SSE visible
07 Dec 8.5 16:56:14 10° W 17:00:46 41° SSW 17:05:15 10° SE visible
07 Dec 9.9 18:39:24 10° WSW 18:42:07 15° SW 18:44:49 10° S visible
08 Dec 9.3 17:22:25 10° W 17:26:28 27° SSW 17:30:29 10° SSE visible
09 Dec 10.0 17:49:04 10° WSW 17:52:01 16° SW 17:54:55 10° S visible
11 Dec 10.1 16:58:47 10° W 17:01:54 17° SW 17:05:00 10° S visible
